Regional Weather Roundup
Issued by NWS

Home | Current Version | Previous Version | Text Only | Print | Product List | Glossary On
Versions: 1 2 3 4 5 6 7 8 9 10 11 12 13 14 15 16 17 18 19 20 21 22 23 24 25 26 27 28 29 30 31 32 33 34 35 36 37 38 39 40 41 42 43 44 45 46 47 48 49 50
000
ASUS44 KOUN 252010
RWROK

WEATHER ROUNDUP FOR OKLAHOMA
NATIONAL WEATHER SERVICE NORMAN OK
200 PM CST SUN FEB 25 2018

NOTE: "FAIR" INDICATES FEW OR NO CLOUDS BELOW 12,000 FEET WITH NO
      SIGNIFICANT WEATHER AND/OR OBSTRUCTIONS TO VISIBILITY.

OKZ001>007-009>012-014-015-017-252100-
NORTHWEST OKLAHOMA AND THE PANHANDLE

CITY           SKY/WX    TMP DP  RH WIND       PRES   REMARKS
GAGE           SUNNY     56  20  24 MISG      29.95F
GUYMON         MOSUNNY   50  14  23 N14       29.97S
ENID/WOODRING  SUNNY     57  41  54 S16G22    29.97F
$$

OKZ016-021>023-033>039-044-045-252100-
SOUTHWEST OKLAHOMA

CITY           SKY/WX    TMP DP  RH WIND       PRES   REMARKS
LAWTON/REGL    SUNNY     62  39  42 S9        29.98F
LAWTON/FT SILL SUNNY     62  41  47 SW8       29.97F
FREDERICK      SUNNY     64  31  28 S14       29.93F
CLINTON        SUNNY     58  27  30 S15G22    29.95F
HOBART         SUNNY     62  31  31 S13       29.96F
ALTUS AFB      SUNNY    N/A N/A N/A S10       29.96F
$$

OKZ018>020-024>031-252100-
CENTRAL OKLAHOMA

CITY           SKY/WX    TMP DP  RH WIND       PRES   REMARKS
OKLAHOMA CITY  SUNNY     61  35  37 S15       29.98F
OKC/WILEY POST SUNNY     61  37  41 SW13      29.97F
OKC/TINKER AFB SUNNY     59  38  45 S17       29.98F
STILLWATER     SUNNY     59  30  33 S10       29.99F
GUTHRIE        SUNNY     59  36  42 SW14G20   29.98F
$$

OKZ008-013-054>072-252100-
NORTHEAST OKLAHOMA

CITY           SKY/WX    TMP DP  RH WIND       PRES   REMARKS
TULSA          SUNNY     57  34  41 SE9       30.03F
TULSA/JONES    SUNNY     58  31  35 S8        30.03F
PONCA CITY     SUNNY     55  31  39 S13G24    29.99F
BARTLESVILLE   SUNNY     54  33  45 SE7G18    30.05F
MUSKOGEE       SUNNY     57  36  45 S14       30.05F
$$

OKZ032-040>043-046>053-073>077-252100-
SOUTH CENTRAL/SOUTHEAST OKLAHOMA

CITY           SKY/WX    TMP DP  RH WIND       PRES   REMARKS
ARDMORE/DWNTWN SUNNY     63  34  34 S9        30.00F
MCALESTER      SUNNY     62  29  28 S10       30.03F
$$





USA.gov is the U.S. government's official web portal to all federal, state and local government web resources and services.